Вернуться в каталог

STARLINK-30528

АктивенСвязьVLEO
NORAD 57967·PAYLOAD·🇺🇸 United States

Запущен Sep 30, 2023 с Cape Canaveral Space Force Station

Loading…

Ближайшие Пролёты (ближайшие 24 часа)

TLE

СвежийSource: CelesTrak SupGP

Эпоха: Sep 15, 2026, 02:45 UTC

1 57967C 23151D   26258.11506944  .00037743  00000+0  13670-2 0  2589
2 57967  43.0028 346.0653 0001755 265.6631 269.9194 15.27560067    17

Отслеживайте STARLINK-30528 в реальном времени с AllMySat

Download on the App Store